| time (UTC) | temp F | wind direction | speed MPH | gust MPH | rain 1hr in | rain 24hr in | rain mn in | humidity % | barometer mb |
| 20260901061559 | 70 | 15 | 2.0 | 5.0 | 0.00 | 0.07 | 0.07 | 76 | 1017.3 |
| 20260901060042 | 69 | 14 | 2.0 | 5.0 | 0.00 | 0.07 | 0.07 | 78 | 1017.1 |
| 20260901054543 | 68 | 355 | 3.0 | 5.0 | 0.00 | 0.07 | 0.07 | 80 | 1017.0 |
| 20260901053039 | 66 | 44 | 0.0 | 2.0 | 0.00 | 0.07 | 0.07 | 84 | 1016.8 |
| 20260901051532 | 65 | 44 | 1.0 | 3.0 | 0.00 | 0.07 | 0.07 | 85 | 1016.6 |
| 20260901050029 | 64 | 46 | 0.0 | 2.0 | 0.00 | 0.07 | 0.07 | 86 | 1016.5 |
| 20260901044526 | 64 | 46 | 1.0 | 3.0 | 0.00 | 0.07 | 0.07 | 86 | 1016.3 |
| 20260901043032 | 64 | 46 | 0.0 | 2.0 | 0.00 | 0.07 | 0.07 | 86 | 1016.1 |
| 20260901041524 | 64 | 46 | 0.0 | 3.0 | 0.00 | 0.07 | 0.07 | 86 | 1016.0 |
| 20260901040023 | 64 | 28 | 0.0 | 2.0 | 0.00 | 0.07 | 0.07 | 88 | 1015.8 |
| 20260901034524 | 64 | 28 | 0.0 | 3.0 | 0.00 | 0.07 | 0.07 | 88 | 1015.7 |
| 20260901033022 | 65 | 28 | 0.0 | 1.0 | 0.00 | 0.07 | 0.07 | 87 | 1015.6 |
| 20260901031519 | 65 | 28 | 1.0 | 3.0 | 0.00 | 0.07 | 0.07 | 86 | 1015.6 |
| 20260901030018 | 66 | 28 | 0.0 | 2.0 | 0.00 | 0.07 | 0.07 | 87 | 1015.6 |
| 20260901024519 | 66 | 28 | 0.0 | 2.0 | 0.01 | 0.07 | 0.07 | 88 | 1015.6 |
| 20260901023018 | 66 | 28 | 0.0 | 2.0 | 0.01 | 0.07 | 0.07 | 88 | 1015.5 |
| 20260901021519 | 67 | 28 | 0.0 | 4.0 | 0.01 | 0.07 | 0.07 | 89 | 1015.5 |
| 20260901020017 | 67 | 30 | 1.0 | 4.0 | 0.01 | 0.07 | 0.07 | 89 | 1015.5 |
| 20260901014516 | 66 | 74 | 0.0 | 5.0 | 0.00 | 0.06 | 0.06 | 89 | 1015.7 |
| 20260901013016 | 66 | 24 | 0.0 | 0.0 | 0.00 | 0.06 | 0.06 | 89 | 1015.8 |
| 20260901011524 | 66 | 24 | 0.0 | 2.0 | 0.00 | 0.06 | 0.06 | 88 | 1015.5 |
| 20260901010016 | 66 | 25 | 0.0 | 2.0 | 0.01 | 0.06 | 0.06 | 88 | 1015.4 |
| 20260901004515 | 66 | 25 | 0.0 | 1.0 | 0.01 | 0.06 | 0.06 | 89 | 1015.6 |
| 20260901003013 | 66 | 28 | 0.0 | 2.0 | 0.03 | 0.06 | 0.06 | 88 | 1015.3 |
| 20260901001513 | 65 | 28 | 0.0 | 3.0 | 0.06 | 0.06 | 0.06 | 87 | 1015.3 |
| 20260901000018 | 65 | 15 | 2.0 | 3.0 | 0.06 | 0.06 | 0.06 | 86 | 1015.4 |
| 20260831234512 | 65 | 21 | 1.0 | 8.0 | 0.06 | 0.06 | 0.06 | 86 | 1015.7 |
| 20260831233008 | 68 | 40 | 1.0 | 7.0 | 0.03 | 0.03 | 0.03 | 81 | 1016.0 |
| 20260831231513 | 69 | 5 | 4.0 | 12.0 | 0.00 | 0.00 | 0.00 | 75 | 1015.2 |
| 20260831224627 | 73 | 346 | 4.0 | 11.0 | 0.00 | 0.00 | 0.00 | 68 | 1015.5 |
| 20260831223051 | 74 | 355 | 4.0 | 6.0 | 0.00 | 0.00 | 0.00 | 65 | 1014.8 |
| 20260831221554 | 76 | 19 | 5.0 | 9.0 | 0.00 | 0.00 | 0.00 | 60 | 1014.4 |
| 20260831220050 | 76 | 25 | 7.0 | 12.0 | 0.00 | 0.00 | 0.00 | 66 | 1014.4 |
| 20260831214547 | 73 | 35 | 2.0 | 4.0 | 0.00 | 0.00 | 0.00 | 81 | 1014.0 |
| 20260831213040 | 73 | 12 | 0.0 | 1.0 | 0.00 | 0.00 | 0.00 | 81 | 1013.8 |
| 20260831211555 | 74 | 12 | 0.0 | 2.0 | 0.00 | 0.00 | 0.00 | 81 | 1013.9 |
| 20260831210038 | 73 | 9 | 0.0 | 2.0 | 0.00 | 0.00 | 0.00 | 81 | 1013.7 |
| 20260831204540 | 73 | 9 | 0.0 | 3.0 | 0.00 | 0.00 | 0.00 | 81 | 1013.4 |
| 20260831203041 | 72 | 339 | 0.0 | 2.0 | 0.00 | 0.00 | 0.00 | 83 | 1013.1 |
| 20260831201537 | 72 | 339 | 0.0 | 3.0 | 0.00 | 0.00 | 0.00 | 85 | 1013.0 |
| 20260831200036 | 73 | 198 | 0.0 | 2.0 | 0.00 | 0.00 | 0.00 | 83 | 1012.8 |
| 20260831194551 | 74 | 198 | 0.0 | 0.0 | 0.00 | 0.00 | 0.00 | 81 | 1012.5 |
| 20260831193047 | 74 | 198 | 0.0 | 0.0 | 0.00 | 0.00 | 0.00 | 81 | 1012.6 |
| 20260831191545 | 75 | 198 | 0.0 | 0.0 | 0.00 | 0.00 | 0.00 | 80 | 1012.4 |
| 20260831190034 | 75 | 198 | 0.0 | 0.0 | 0.00 | 0.00 | 0.00 | 79 | 1012.1 |
| 20260831184534 | 76 | 198 | 0.0 | 0.0 | 0.00 | 0.00 | 0.00 | 75 | 1011.8 |
| 20260831183033 | 77 | 198 | 0.0 | 0.0 | 0.00 | 0.00 | 0.00 | 74 | 1011.5 |
| 20260831181533 | 78 | 198 | 0.0 | 0.0 | 0.00 | 0.00 | 0.00 | 73 | 1011.4 |
| 20260831180036 | 79 | 198 | 0.0 | 0.0 | 0.00 | 0.00 | 0.00 | 70 | 1011.1 |
| 20260831174532 | 81 | 198 | 0.0 | 1.0 | 0.00 | 0.00 | 0.00 | 65 | 1011.1 |
| 20260831173038 | 82 | 198 | 0.0 | 2.0 | 0.00 | 0.00 | 0.00 | 62 | 1011.2 |
| 20260831171529 | 83 | 198 | 0.0 | 2.0 | 0.00 | 0.00 | 0.00 | 60 | 1011.2 |
| 20260831170028 | 85 | 173 | 0.0 | 3.0 | 0.00 | 0.00 | 0.00 | 58 | 1011.3 |
| 20260831164527 | 85 | 203 | 0.0 | 4.0 | 0.00 | 0.00 | 0.00 | 57 | 1011.3 |
| 20260831163031 | 87 | 181 | 0.0 | 5.0 | 0.00 | 0.00 | 0.00 | 54 | 1011.5 |
| 20260831161528 | 88 | 209 | 0.0 | 2.0 | 0.00 | 0.00 | 0.00 | 52 | 1011.6 |
| 20260831160029 | 87 | 209 | 0.0 | 2.0 | 0.00 | 0.00 | 0.00 | 49 | 1011.7 |
| 20260831154540 | 87 | 203 | 0.0 | 3.0 | 0.00 | 0.00 | 0.00 | 50 | 1011.7 |
| 20260831153026 | 87 | 237 | 0.0 | 6.0 | 0.00 | 0.00 | 0.00 | 48 | 1011.8 |
| 20260831151528 | 88 | 190 | 0.0 | 4.0 | 0.00 | 0.00 | 0.00 | 43 | 1011.8 |
| 20260831150019 | 88 | 221 | 0.0 | 3.0 | 0.00 | 0.00 | 0.00 | 46 | 1012.0 |
| 20260831144519 | 87 | 184 | 2.0 | 5.0 | 0.00 | 0.00 | 0.00 | 49 | 1012.0 |
| 20260831143018 | 88 | 197 | 0.0 | 4.0 | 0.00 | 0.00 | 0.00 | 44 | 1011.9 |
| 20260831141517 | 88 | 188 | 1.0 | 4.0 | 0.00 | 0.00 | 0.00 | 42 | 1012.0 |
| 20260831140017 | 88 | 230 | 0.0 | 4.0 | 0.00 | 0.00 | 0.00 | 48 | 1012.1 |
| 20260831134515 | 88 | 188 | 0.0 | 4.0 | 0.00 | 0.00 | 0.00 | 51 | 1012.1 |
| 20260831133014 | 88 | 225 | 1.0 | 4.0 | 0.00 | 0.00 | 0.00 | 46 | 1012.2 |
| 20260831131512 | 87 | 220 | 1.0 | 6.0 | 0.00 | 0.00 | 0.00 | 51 | 1012.3 |
| 20260831130010 | 87 | 194 | 1.0 | 5.0 | 0.00 | 0.00 | 0.00 | 51 | 1012.5 |
| 20260831124524 | 88 | 205 | 1.0 | 5.0 | 0.00 | 0.00 | 0.00 | 46 | 1012.5 |
| 20260831123008 | 87 | 246 | 0.0 | 4.0 | 0.00 | 0.00 | 0.00 | 55 | 1012.6 |
| 20260831121509 | 87 | 230 | 1.0 | 4.0 | 0.00 | 0.00 | 0.00 | 53 | 1012.6 |
| 20260831120008 | 86 | 171 | 1.0 | 7.0 | 0.00 | 0.00 | 0.00 | 58 | 1012.8 |
| 20260831114506 | 87 | 242 | 0.0 | 5.0 | 0.00 | 0.00 | 0.00 | 53 | 1012.9 |
| 20260831113006 | 87 | 209 | 0.0 | 3.0 | 0.00 | 0.00 | 0.00 | 57 | 1012.9 |
| 20260831111509 | 87 | 195 | 0.0 | 2.0 | 0.00 | 0.00 | 0.00 | 47 | 1013.0 |
| 20260831110011 | 87 | 304 | 0.0 | 3.0 | 0.00 | 0.00 | 0.00 | 51 | 1013.1 |
| 20260831104504 | 85 | 198 | 0.0 | 4.0 | 0.00 | 0.00 | 0.00 | 55 | 1013.2 |
| 20260831103103 | 87 | 199 | 0.0 | 2.0 | 0.00 | 0.00 | 0.00 | 52 | 1013.2 |
| 20260831101603 | 86 | 50 | 0.0 | 2.0 | 0.00 | 0.00 | 0.00 | 55 | 1013.2 |
| 20260831100106 | 85 | 229 | 0.0 | 3.0 | 0.00 | 0.00 | 0.00 | 53 | 1013.4 |
| 20260831094614 | 85 | 135 | 0.0 | 2.0 | 0.00 | 0.00 | 0.00 | 50 | 1013.5 |
| 20260831093053 | 86 | 135 | 0.0 | 1.0 | 0.00 | 0.00 | 0.00 | 54 | 1013.7 |
| 20260831091548 | 85 | 63 | 0.0 | 3.0 | 0.00 | 0.00 | 0.00 | 50 | 1013.7 |
| 20260831090045 | 84 | 69 | 0.0 | 2.0 | 0.00 | 0.00 | 0.00 | 53 | 1013.7 |
| 20260831084545 | 83 | 72 | 0.0 | 3.0 | 0.00 | 0.00 | 0.00 | 56 | 1013.6 |
| 20260831083036 | 82 | 67 | 0.0 | 2.0 | 0.00 | 0.00 | 0.00 | 57 | 1013.5 |
| 20260831081537 | 82 | 67 | 0.0 | 2.0 | 0.00 | 0.00 | 0.00 | 57 | 1013.5 |
| 20260831080028 | 81 | 64 | 0.0 | 2.0 | 0.00 | 0.00 | 0.00 | 64 | 1013.4 |
| 20260831074528 | 80 | 42 | 1.0 | 3.0 | 0.00 | 0.00 | 0.00 | 63 | 1013.3 |
| 20260831073021 | 79 | 59 | 0.0 | 3.0 | 0.00 | 0.00 | 0.00 | 66 | 1013.2 |
| 20260831071516 | 78 | 57 | 0.0 | 2.0 | 0.00 | 0.00 | 0.00 | 68 | 1013.3 |
| 20260831070014 | 76 | 57 | 0.0 | 3.0 | 0.00 | 0.00 | 0.00 | 70 | 1013.2 |
| 20260831064508 | 74 | 62 | 0.0 | 3.0 | 0.00 | 0.00 | 0.00 | 73 | 1013.1 |
| 20260831063004 | 73 | 63 | 1.0 | 3.0 | 0.00 | 0.00 | 0.00 | 74 | 1013.2 |